Weather History for Rochester, NH

Change the Weather History Date:

Friday, March 28, 2014

  Actual Average (KSFM) Record (KSFM)
Temperature  
Mean Temperature 41 °F -  
Max Temperature 48 °F 45 °F 84 °F (1998)
Min Temperature 34 °F 27 °F 19 °F (2006)
Degree Days  
Heating Degree Days 24    
Moisture  
Dew Point 36 °F    
Average Humidity 80    
Maximum Humidity 97    
Minimum Humidity 36    
Precipitation  
Precipitation 0.06 in - - ()
Sea Level Pressure  
Sea Level Pressure 29.99 in    
Wind  
Wind Speed 3 mph (South)    
Max Wind Speed 7 mph    
Max Gust Speed -    
Visibility 5 miles    
Events Fog , Rain , Snow    
Averages and records for this station are not official NWS values.
T = Trace of Precipitation, MM = Missing Value Source: NWS Daily Summary

Daily Weather History Graph

Daily Weather History Graph

Search for Another Location

Airport:

Trip Planner

Search our weather history database for the weather conditions in past years. The results will help you decide how hot, cold, wet, or windy it might be!

Date:

Astronomy

Mar. 28, 2014 Rise Set
Actual Time 6:32 AM EDT 7:05 PM EDT
Civil Twilight 6:04 AM EDT 7:34 PM EDT
Nautical Twilight 5:30 AM EDT 8:08 PM EDT
Astronomical Twilight 4:55 AM EDT 8:43 PM EDT
Moon 5:05 AM EDT (3/28) 4:55 PM EDT (3/28)
Length of Visible Light 13h 30m
Length of Day
12h 32m
Waning Crescent, 6% of the Moon is Illuminated
Mar 28
Waning Crescent
Mar 30
New
Apr 7
First Quarter
Apr 15
Full
Apr 22
Last Quarter

Hourly Weather History & Observations

Time (EDT) Temp. Windchill Dew Point Humidity Pressure Visibility Wind Dir Wind Speed Gust Speed Precip Events Conditions
12:51 AM 36.0 °F 32.1 °F 10.9 °F 36% 30.19 in 10.0 mi South 4.6 mph - N/A   Overcast
1:51 AM 35.1 °F 32.2 °F 12.0 °F 39% 30.18 in 10.0 mi Variable 3.5 mph - N/A   Overcast
2:51 AM 35.1 °F - 12.9 °F 40% 30.17 in 10.0 mi Calm Calm - N/A   Overcast
3:51 AM 34.0 °F 31.0 °F 15.1 °F 46% 30.16 in 10.0 mi Variable 3.5 mph - N/A   Overcast
4:51 AM 34.0 °F - 15.1 °F 46% 30.14 in 10.0 mi Calm Calm - N/A   Overcast
5:51 AM 34.0 °F 31.0 °F 18.0 °F 52% 30.14 in 10.0 mi South 3.5 mph - N/A   Overcast
6:51 AM 34.0 °F 28.0 °F 19.9 °F 56% 30.13 in 10.0 mi South 6.9 mph - N/A   Overcast
7:51 AM 34.0 °F 28.0 °F 23.0 °F 64% 30.12 in 9.0 mi South 6.9 mph - 0.00 in Snow Light Snow
8:51 AM 36.0 °F 31.1 °F 24.1 °F 62% 30.09 in 10.0 mi South 5.8 mph - 0.00 in   Overcast
9:51 AM 39.0 °F 34.8 °F 25.0 °F 57% 30.07 in 10.0 mi Variable 5.8 mph - N/A   Overcast
10:51 AM 41.0 °F 38.0 °F 27.0 °F 57% 30.04 in 10.0 mi Variable 4.6 mph - N/A   Mostly Cloudy
11:51 AM 42.1 °F 37.7 °F 27.0 °F 55% 30.02 in 10.0 mi Variable 6.9 mph - N/A   Overcast
12:51 PM 44.1 °F - 28.0 °F 53% 29.99 in 10.0 mi Calm Calm - N/A   Overcast
1:51 PM 48.9 °F - 30.9 °F 50% 29.96 in 10.0 mi Variable 3.5 mph - N/A   Overcast
2:51 PM 46.9 °F - 36.0 °F 66% 29.94 in 10.0 mi Variable 5.8 mph - 0.00 in   Overcast
3:39 PM 46.0 °F 44.8 °F 39.9 °F 79% 29.94 in 6.0 mi Variable 3.5 mph - 0.01 in Rain Light Rain
3:51 PM 45.0 °F - 39.9 °F 82% 29.93 in 7.0 mi Calm Calm - 0.01 in Rain Light Rain
4:51 PM 44.1 °F - 41.0 °F 89% 29.92 in 4.0 mi Calm Calm - 0.02 in Rain Light Rain
5:03 PM 44.1 °F - 42.1 °F 93% 29.92 in 4.0 mi Calm Calm - 0.00 in Rain Light Rain
5:23 PM 44.1 °F - 42.1 °F 93% 29.92 in 1.8 mi Calm Calm - 0.01 in Rain Rain
5:49 PM 44.6 °F 43.1 °F 42.8 °F 93% 29.92 in 2.5 mi Variable 3.5 mph - 0.02 in Rain Light Rain
5:51 PM 44.1 °F - 42.1 °F 93% 29.92 in 2.5 mi Calm Calm - 0.02 in Rain Light Rain
5:56 PM 44.1 °F 42.5 °F 42.1 °F 93% 29.92 in 3.0 mi South 3.5 mph - 0.00 in Rain Light Rain
6:13 PM 44.1 °F 42.5 °F 42.1 °F 93% 29.91 in 2.5 mi South 3.5 mph - 0.01 in   Overcast
6:20 PM 44.1 °F - 42.1 °F 93% 29.92 in 2.5 mi Calm Calm - 0.01 in   Overcast
6:31 PM 44.1 °F - 42.1 °F 93% 29.93 in 3.0 mi Calm Calm - 0.01 in   Overcast
6:45 PM 44.6 °F - 42.8 °F 93% 29.93 in 2.5 mi Calm Calm - 0.01 in   Overcast
6:51 PM 44.1 °F - 42.1 °F 93% 29.93 in 2.5 mi Calm Calm - 0.01 in   Overcast
6:58 PM 44.1 °F - 42.1 °F 93% 29.93 in 0.8 mi Calm Calm - N/A   Overcast
7:10 PM 44.1 °F - 42.1 °F 93% 29.94 in 2.0 mi Calm Calm - N/A   Overcast
7:18 PM 45.0 °F - 42.1 °F 90% 29.94 in 4.0 mi Calm Calm - N/A   Overcast
7:32 PM 44.1 °F - 42.1 °F 93% 29.94 in 2.5 mi Calm Calm - N/A   Overcast
7:44 PM 43.0 °F 40.3 °F 41.0 °F 93% 29.93 in 1.5 mi SSE 4.6 mph - N/A   Overcast
7:51 PM 43.0 °F 40.3 °F 41.0 °F 93% 29.93 in 1.2 mi South 4.6 mph - N/A   Overcast
7:57 PM 43.0 °F 40.3 °F 41.0 °F 93% 29.92 in 0.8 mi South 4.6 mph - N/A   Overcast
8:06 PM 42.1 °F 40.2 °F 41.0 °F 96% 29.93 in 1.0 mi Variable 3.5 mph - N/A   Overcast
8:18 PM 44.1 °F - 42.1 °F 93% 29.94 in 3.0 mi Calm Calm - N/A   Overcast
8:51 PM 44.1 °F - 43.0 °F 96% 29.94 in 5.0 mi Calm Calm - N/A   Overcast
9:31 PM 44.1 °F - 43.0 °F 96% 29.95 in 2.5 mi Calm Calm - N/A   Overcast
9:39 PM 44.1 °F - 42.1 °F 93% 29.95 in 0.8 mi Calm Calm - N/A   Overcast
9:51 PM 43.0 °F - 42.1 °F 97% 29.96 in 0.5 mi Calm Calm - N/A Fog Fog
10:06 PM 44.1 °F - 42.1 °F 93% 29.96 in 0.2 mi Calm Calm - N/A Fog Fog
10:24 PM 45.0 °F - 43.0 °F 93% 29.97 in 1.0 mi Calm Calm - N/A   Overcast
10:28 PM 45.0 °F - 43.0 °F 93% 29.97 in 4.0 mi Calm Calm - N/A   Overcast
10:51 PM 45.0 °F - 43.0 °F 93% 29.96 in 7.0 mi Calm Calm - N/A   Overcast
11:43 PM 44.1 °F - 43.0 °F 96% 29.97 in 4.0 mi Calm Calm - N/A   Overcast
11:51 PM 45.0 °F - 43.0 °F 93% 29.97 in 4.0 mi Calm Calm - N/A   Overcast